Hourly Data Report for December 21, 2018

TORONTO CITY
ONTARIO
Current Station Operator: ECCC - MSC

43°40'00.000" N
79°24'00.000" W
112.50 m
6158355
71508
XTO

Download Data

Hourly Data (December 2018)
Hourly Data Report for December 21, 2018
TIME
LST
Temp Definition
°C
Dew Point Definition
°C
Rel Hum Definition
%
Precip. Amount Definition
mm

Wind Dir Definition
10's deg

Wind Spd Definition
km/h
Visibility Definition
km
Stn Press Definition
kPa
Hmdx Definition


Wind Chill Definition


Weather Definition


00:00 4.2 2.0 86 1.3 LegendMM LegendMM   98.73     LegendNANA
01:00 4.3 2.2 86 1.8 LegendMM LegendMM   98.51     LegendNANA
02:00 4.4 2.9 90 4.2 LegendMM LegendMM   98.27     LegendNANA
03:00 5.1 3.8 91 6.2 LegendMM LegendMM   98.10     LegendNANA
04:00 5.3 4.0 91 1.2 LegendMM LegendMM   97.96     LegendNANA
05:00 5.8 4.6 92 0.0 LegendMM LegendMM   97.83     LegendNANA
06:00 6.0 4.9 92 0.2 LegendMM LegendMM   97.74     LegendNANA
07:00 6.1 4.9 92 0.0 LegendMM LegendMM   97.72     LegendNANA
08:00 6.1 5.0 93 0.3 LegendMM LegendMM   97.67     LegendNANA
09:00 4.4 3.2 92 0.2 LegendMM LegendMM   97.73     LegendNANA
10:00 3.9 2.6 92 0.0 LegendMM LegendMM   97.74     LegendNANA
11:00 4.2 2.8 91 0.2 LegendMM LegendMM   97.74     LegendNANA
12:00 4.8 3.1 88 0.0 LegendMM LegendMM   97.67     LegendNANA
13:00 5.8 3.4 85 0.0 LegendMM LegendMM   97.62     LegendNANA
14:00 5.5 2.6 81 0.0 LegendMM LegendMM   97.64     LegendNANA
15:00 5.3 2.1 80 0.0 LegendMM LegendMM   97.67     LegendNANA
16:00 4.9 1.4 78 0.0 LegendMM LegendMM   97.72     LegendNANA
17:00 4.0 0.5 78 0.0 LegendMM LegendMM   97.76     LegendNANA
18:00 3.5 0.5 81 0.0 LegendMM LegendMM   97.74     LegendNANA
19:00 3.2 0.0 79 0.0 LegendMM LegendMM   97.79     LegendNANA
20:00 2.6 -0.5 80 0.0 LegendMM LegendMM   97.82     LegendNANA
21:00 1.6 -2.5 74 0.0 LegendMM LegendMM   97.87     LegendNANA
22:00 1.0 -2.7 76 0.0 LegendMM LegendMM   97.95     LegendNANA
23:00 0.8 -3.3 74 0.0 LegendMM LegendMM   98.01     LegendNANA

Notes on Data Quality.

Legend

  • E = Estimated
  • M = Missing
  • NA = Not Available*
  • [empty] = Indicates an unobserved value
Date modified: